Chattanooga, TN

12:45 AM EDT on August 27, 2016 (GMT -0400)
Lovell

Weather History for KCHA - August, 2014

Change the Weather History Date:

Sunday, August 17, 2014

  Actual Average Record
Temperature  
Mean Temperature 80 °F 80 °F  
Max Temperature 93 °F 90 °F 102 °F (1936)
Min Temperature 67 °F 69 °F 58 °F (1889)
Cooling Degree Days 15 15  
Month to date cooling degree days 226 255  
Year to date cooling degree days 1280 1259  
Since 1 June cooling degree days 1022 1063  
Growing Degree Days 30 (Base 50)    
Moisture  
Dew Point 66 °F    
Average Humidity 62    
Maximum Humidity 87    
Minimum Humidity 36    
Precipitation  
Precipitation 0.18 in 0.10 in 2.68 in (2015)
Month to date precipitation 1.14 2.01  
Year to date precipitation 25.99 33.79  
Snow  
Snow 0.00 in - - ()
Month to date snowfall 0.0  
Since 1 June snowfall 0.0  
Snow Depth 0.00 in    
Sea Level Pressure  
Sea Level Pressure 29.98 in    
Wind  
Wind Speed 3 mph (SW)    
Max Wind Speed 29 mph    
Max Gust Speed 37 mph    
Visibility 9 miles    
Events Rain , Thunderstorm    
T = Trace of Precipitation, MM = Missing Value Source: NWS Daily Summary

Daily Weather History Graph

Daily Weather History Graph

Search for Another Location

Airport or City:

Trip Planner

Search our weather history database for the weather conditions in past years. The results will help you decide how hot, cold, wet, or windy it might be!

Date:

Astronomy

Aug. 17, 2014 Rise Set
Actual Time 7:02 AM EDT 8:26 PM EDT
Civil Twilight 6:35 AM EDT 8:53 PM EDT
Nautical Twilight 6:03 AM EDT 9:25 PM EDT
Astronomical Twilight 5:30 AM EDT 9:58 PM EDT
Moon 12:28 AM EDT (8/17) 2:29 PM EDT (8/17)
Length of Visible Light 14h 17m
Length of Day
13h 24m
Waning Gibbous, 48% of the Moon is Illuminated
Aug 17
Waning Gibbous
Aug 25
New
Sep 2
First Quarter
Sep 8
Full
Sep 15
Last Quarter

Hourly Weather History & Observations

Time (EDT) Temp. Heat Index Dew Point Humidity Pressure Visibility Wind Dir Wind Speed Gust Speed Precip Events Conditions
12:53 AM 72.0 °F - 64.0 °F 76% 30.01 in 10.0 mi Calm Calm - N/A   Scattered Clouds
1:53 AM 71.1 °F - 64.0 °F 78% 30.00 in 10.0 mi Calm Calm - N/A   Scattered Clouds
2:53 AM 71.6 °F - 64.4 °F 78% 30.01 in 9.0 mi Calm Calm - N/A   Clear
3:53 AM 71.1 °F - 64.9 °F 81% 29.99 in 9.0 mi SSW 3.5 mph - N/A   Clear
4:53 AM 69.1 °F - 64.9 °F 87% 29.99 in 8.0 mi Calm Calm - N/A   Clear
5:53 AM 68.0 °F - 64.0 °F 87% 29.99 in 7.0 mi Calm Calm - N/A   Scattered Clouds
6:53 AM 68.0 °F - 64.0 °F 87% 30.00 in 7.0 mi Calm Calm - N/A   Scattered Clouds
7:53 AM 69.1 °F - 64.9 °F 87% 30.03 in 6.0 mi Calm Calm - N/A   Scattered Clouds
8:53 AM 71.1 °F - 64.0 °F 78% 30.03 in 7.0 mi Calm Calm - N/A   Scattered Clouds
9:53 AM 77.0 °F - 64.9 °F 66% 30.01 in 9.0 mi SSW 4.6 mph - N/A   Scattered Clouds
10:53 AM 82.0 °F 84.1 °F 66.0 °F 58% 30.01 in 10.0 mi Calm Calm - N/A   Scattered Clouds
11:53 AM 87.1 °F 90.6 °F 68.0 °F 53% 29.99 in 10.0 mi Calm Calm - N/A   Mostly Cloudy
12:53 PM 89.1 °F 91.0 °F 64.9 °F 45% 29.98 in 10.0 mi WSW 10.4 mph - N/A   Mostly Cloudy
1:53 PM 90.0 °F 91.7 °F 64.9 °F 43% 29.97 in 10.0 mi Variable 6.9 mph - N/A   Mostly Cloudy
2:53 PM 93.0 °F 94.2 °F 63.0 °F 37% 29.94 in 10.0 mi SW 11.5 mph - N/A   Mostly Cloudy
3:53 PM 90.0 °F 91.3 °F 64.0 °F 42% 29.95 in 10.0 mi West 10.4 mph - N/A   Mostly Cloudy
4:12 PM 86.0 °F 87.6 °F 64.9 °F 49% 29.98 in 10.0 mi NNW 10.4 mph - N/A Thunderstorm Thunderstorm
4:43 PM 73.9 °F - 68.0 °F 82% 30.00 in 2.0 mi West 18.4 mph 31.1 mph 0.00 in Rain , Thunderstorm Thunderstorms and Rain
4:46 PM 73.0 °F - 68.0 °F 84% 30.00 in 1.8 mi WSW 17.3 mph 26.5 mph 0.00 in Rain , Thunderstorm Thunderstorms and Rain
4:53 PM 73.0 °F - 68.0 °F 84% 29.99 in 1.8 mi South 8.1 mph - 0.07 in Rain , Thunderstorm Thunderstorms and Rain
4:58 PM 72.0 °F - 69.1 °F 91% 30.00 in 10.0 mi Variable 5.8 mph - 0.01 in Rain Light Rain
5:04 PM 73.0 °F - 69.1 °F 87% 29.99 in 10.0 mi SSW 5.8 mph - 0.01 in Rain Light Rain
5:53 PM 73.0 °F - 69.1 °F 87% 29.96 in 10.0 mi East 4.6 mph - 0.09 in Rain Rain
6:53 PM 73.9 °F - 69.1 °F 85% 29.95 in 10.0 mi SSE 3.5 mph - 0.01 in   Mostly Cloudy
7:53 PM 73.9 °F - 70.0 °F 87% 29.96 in 10.0 mi WSW 4.6 mph - N/A   Mostly Cloudy
8:53 PM 73.0 °F - 70.0 °F 90% 29.96 in 10.0 mi SE 4.6 mph - N/A   Mostly Cloudy
9:53 PM 73.0 °F - 69.1 °F 87% 29.96 in 10.0 mi Calm Calm - N/A   Mostly Cloudy
10:53 PM 73.0 °F - 69.1 °F 87% 29.94 in 10.0 mi Calm Calm - N/A   Mostly Cloudy
11:53 PM 73.0 °F - 70.0 °F 90% 29.95 in 10.0 mi Calm Calm - N/A   Mostly Cloudy